GW2755 Weather Reports


time (UTC)temp
C
wind
direction
speed
KPH
gust
KPH
rain 1hr
cm
rain 24hr
cm
rain mn
cm
humidity
%
barometer
mb
20260506222541 25 3 4.8 12.9 0.00 0.00 0.00 55 1018.9
20260506221541 24 31 4.8 12.9 0.00 0.00 0.00 56 1019.1
20260506220541 25 16 4.8 16.1 0.00 0.00 0.00 56 1019.3
20260506215541 25 45 6.4 16.1 0.00 0.00 0.00 55 1019.4
20260506214603 25 69 3.2 11.3 0.00 0.00 0.00 54 1019.4
20260506213541 26 24 4.8 11.3 0.00 0.00 0.00 51 1019.3
20260506212541 26 63 3.2 6.4 0.00 0.00 0.00 49 1019.4
20260506211541 26 343 4.8 12.9 0.00 0.00 0.00 47 1019.5
20260506210541 26 318 3.2 6.4 0.00 0.00 0.00 47 1019.5
20260506205601 26 331 1.6 4.8 0.00 0.00 0.00 46 1019.7
20260506204541 26 328 1.6 4.8 0.00 0.00 0.00 46 1019.6
20260506203541 25 29 3.2 6.4 0.00 0.00 0.00 48 1019.9
20260506202541 25 330 4.8 6.4 0.00 0.00 0.00 48 1020.0
20260506201541 25 325 1.6 4.8 0.00 0.00 0.00 48 1020.0
20260506200540 25 0 1.6 4.8 0.00 0.00 0.00 49 1020.3
20260506195601 24 319 1.6 6.4 0.00 0.00 0.00 50 1020.4
20260506194541 24 316 1.6 4.8 0.00 0.00 0.00 50 1020.5
20260506193541 23 323 3.2 9.7 0.00 0.00 0.00 50 1020.6
20260506192541 23 299 1.6 4.8 0.00 0.00 0.00 50 1020.7
20260506191541 23 254 1.6 4.8 0.00 0.00 0.00 51 1021.0
20260506190541 23 255 1.6 6.4 0.00 0.00 0.00 51 1021.1
20260506185541 22 241 1.6 9.7 0.00 0.00 0.00 52 1021.3
20260506184542 22 239 1.6 6.4 0.00 0.00 0.00 53 1021.3
20260506183541 22 223 3.2 6.4 0.00 0.00 0.00 52 1021.4
20260506182541 22 268 1.6 6.4 0.00 0.00 0.00 55 1021.4
20260506181541 21 270 3.2 4.8 0.00 0.00 0.00 57 1021.5
20260506180541 20 240 1.6 4.8 0.00 0.00 0.00 59 1021.5
20260506175602 21 260 1.6 4.8 0.00 0.00 0.00 59 1021.4
20260506174542 20 245 3.2 6.4 0.00 0.00 0.00 62 1021.6
20260506173602 19 251 1.6 6.4 0.00 0.00 0.00 64 1021.7
20260506172541 20 276 3.2 4.8 0.00 0.00 0.00 62 1021.9
20260506171541 19 293 1.6 3.2 0.00 0.00 0.00 65 1022.0
20260506170541 18 237 1.6 3.2 0.00 0.00 0.00 68 1022.1
20260506165542 17 277 1.6 4.8 0.00 0.00 0.00 71 1022.2
20260506164541 17 275 1.6 4.8 0.00 0.00 0.00 71 1022.3
20260506163541 17 242 1.6 3.2 0.00 0.00 0.00 72 1022.3
20260506162542 17 222 1.6 4.8 0.00 0.00 0.00 73 1022.4
20260506161542 16 251 1.6 6.4 0.00 0.00 0.00 75 1022.5
20260506160541 15 270 1.6 4.8 0.00 0.00 0.00 76 1022.7
20260506155541 15 225 1.6 4.8 0.00 0.00 0.00 79 1022.7
20260506154541 14 227 1.6 6.4 0.00 0.00 0.00 80 1022.6
20260506153541 13 250 1.6 3.2 0.00 0.00 0.00 82 1022.7
20260506152543 13 219 3.2 6.4 0.00 0.00 0.00 84 1022.8
20260506151542 12 213 3.2 4.8 0.00 0.00 0.00 84 1022.8
20260506150541 12 228 1.6 3.2 0.00 0.00 0.00 85 1022.8
20260506145541 12 216 1.6 3.2 0.00 0.00 0.00 87 1022.9
20260506144601 12 212 1.6 4.8 0.00 0.00 0.00 87 1022.7
20260506143541 11 225 1.6 4.8 0.00 0.00 0.00 89 1022.8
20260506142540 11 222 1.6 4.8 0.00 0.00 0.00 90 1022.8
20260506141601 10 205 1.6 6.4 0.00 0.00 0.00 91 1022.6
20260506140541 10 225 1.6 4.8 0.00 0.00 0.00 92 1020.9
20260506135542 9 221 1.6 4.8 0.00 0.00 0.00 93 1020.6
20260506134541 9 218 1.6 3.2 0.00 0.00 0.00 94 1020.6
20260506133541 8 226 1.6 3.2 0.00 0.00 0.00 94 1020.8
20260506132541 9 222 1.6 4.8 0.00 0.00 0.00 93 1022.2
20260506131542 9 245 1.6 3.2 0.00 0.00 0.00 93 1022.0
20260506130541 9 0.0 0.0 0.00 0.00 0.00 93 1022.0
20260506125542 9 0.0 0.0 0.00 0.00 0.00 93 1021.8
20260506124542 9 203 0.0 3.2 0.00 0.00 0.00 93 1021.7
20260506123542 9 0.0 0.0 0.00 0.00 0.00 93 1021.7
20260506122542 9 0.0 0.0 0.00 0.00 0.00 93 1021.7
20260506121542 9 211 1.6 1.6 0.00 0.00 0.00 93 1021.7
20260506120541 9 198 0.0 1.6 0.00 0.00 0.00 93 1021.7
20260506115541 9 224 0.0 1.6 0.00 0.00 0.00 93 1021.6
20260506114540 9 210 1.6 3.2 0.00 0.00 0.00 93 1021.6
20260506113541 9 221 1.6 4.8 0.00 0.00 0.00 93 1021.5
20260506112540 9 224 0.0 1.6 0.00 0.00 0.00 93 1021.4
20260506111540 9 216 0.0 3.2 0.00 0.00 0.00 94 1021.3
20260506110540 9 221 0.0 1.6 0.00 0.00 0.00 95 1021.1
20260506105603 9 0.0 0.0 0.00 0.00 0.00 95 1021.2
20260506104541 9 0.0 0.0 0.00 0.00 0.00 94 1021.2
20260506103541 9 0.0 0.0 0.00 0.00 0.00 94 1021.1
20260506102601 8 0.0 0.0 0.00 0.00 0.00 94 1021.0
20260506101601 9 0.0 0.0 0.00 0.00 0.00 94 1021.1
20260506100621 8 0.0 0.0 0.00 0.00 0.00 93 1021.1
20260506095541 9 0.0 0.0 0.00 0.00 0.00 93 1019.6
20260506094541 9 0.0 0.0 0.00 0.00 0.00 93 1019.7
20260506093541 10 0.0 0.0 0.00 0.00 0.00 93 1019.6
20260506092541 10 0.0 0.0 0.00 0.00 0.00 93 1021.4
20260506091541 10 0.0 0.0 0.00 0.00 0.00 93 1021.1
20260506090541 10 0.0 0.0 0.00 0.00 0.00 92 1021.2
20260506085541 10 0.0 0.0 0.00 0.00 0.00 92 1021.0
20260506084541 10 0.0 0.0 0.00 0.00 0.00 92 1021.0
20260506083541 10 0.0 0.0 0.00 0.00 0.00 93 1020.9
20260506082541 10 0.0 0.0 0.00 0.00 0.00 93 1021.0
20260506081542 10 0.0 0.0 0.00 0.00 0.00 93 1020.9
20260506080541 10 0.0 0.0 0.00 0.00 0.00 93 1021.0
20260506072540 10 0.0 0.0 0.00 0.00 0.00 91 1020.7
20260506071541 10 0.0 0.0 0.00 0.00 0.00 91 1020.6
20260506070601 11 0.0 0.0 0.00 0.00 0.00 91 1020.5
20260506061541 12 268 0.0 3.2 0.00 0.00 0.00 88 1020.3
20260506060541 12 315 0.0 4.8 0.00 0.00 0.00 87 1018.6
20260506050601 12 104 1.6 4.8 0.00 0.00 0.00 87 1019.7
20260506044543 13 113 1.6 4.8 0.00 0.00 0.00 86 1019.5
20260506043602 13 133 1.6 9.7 0.00 0.00 0.00 85 1019.4
20260506042541 13 54 1.6 9.7 0.00 0.00 0.00 85 1019.3
20260506041541 13 43 0.0 4.8 0.00 0.00 0.00 84 1019.1
20260506040542 13 31 1.6 4.8 0.00 0.00 0.00 83 1019.0
20260506035541 13 30 1.6 4.8 0.00 0.00 0.00 83 1018.9
20260506034542 13 306 1.6 4.8 0.00 0.00 0.00 82 1018.8
20260506033541 13 16 3.2 4.8 0.00 0.00 0.00 81 1018.6
20260506032541 14 81 3.2 11.3 0.00 0.00 0.00 80 1018.3
20260506031543 14 83 3.2 11.3 0.00 0.00 0.00 80 1018.3
20260506030540 14 49 3.2 11.3 0.00 0.00 0.00 79 1018.3
20260506025602 15 80 4.8 11.3 0.00 0.00 0.00 79 1018.1
20260506024541 15 56 4.8 14.5 0.00 0.00 0.00 78 1018.1
20260506023603 15 74 1.6 6.4 0.00 0.00 0.00 77 1016.6
20260506022541 15 97 1.6 9.7 0.00 0.00 0.00 75 1016.4
20260506021541 16 28 3.2 9.7 0.00 0.00 0.00 74 1016.4
20260506020540 16 18 4.8 9.7 0.00 0.00 0.00 72 1017.7
20260506015541 16 232 3.2 9.7 0.00 0.00 0.00 70 1017.8
20260506014541 17 108 4.8 9.7 0.00 0.00 0.00 69 1017.8
20260506013541 17 47 3.2 12.9 0.00 0.00 0.00 68 1017.6
20260506012541 17 76 3.2 11.3 0.00 0.00 0.00 67 1017.6
20260506011541 18 33 4.8 11.3 0.00 0.00 0.00 66 1017.6
20260506010543 18 80 4.8 12.9 0.00 0.00 0.00 65 1017.5
20260506005601 18 88 6.4 11.3 0.00 0.00 0.00 64 1017.6
20260506004543 19 21 4.8 12.9 0.00 0.00 0.00 63 1017.6
20260506003541 20 64 4.8 14.5 0.00 0.00 0.00 62 1017.4
20260506002541 19 50 4.8 11.3 0.00 0.00 0.00 62 1017.4
20260506001540 19 185 3.2 9.7 0.00 0.00 0.00 62 1017.3
20260506000541 19 93 4.8 12.9 0.00 0.00 0.00 60 1017.3
20260505235601 19 67 4.8 11.3 0.00 0.00 0.00 61 1017.4
20260505234541 19 38 4.8 14.5 0.00 0.00 0.00 61 1017.2
20260505233541 18 124 1.6 11.3 0.00 0.00 0.00 62 1017.3
20260505232541 18 165 1.6 9.7 0.00 0.00 0.00 63 1017.2
20260505231541 18 26 3.2 12.9 0.00 0.00 0.00 63 1015.5
20260505230601 18 170 4.8 12.9 0.00 0.00 0.00 62 1016.9
20260505225541 18 196 1.6 12.9 0.00 0.00 0.00 62 1017.4
20260505224541 19 47 3.2 11.3 0.00 0.00 0.00 60 1017.3
20260505223601 20 152 1.6 9.7 0.00 0.00 0.00 58 1017.5